sat.trackr.live / text

‹ back to catalog

STARLINK-1656

NORAD 46353 · 2020-062AE

PAYLOAD ACTIVE UNKNOWN

§ Identity

Operator
Country
US
Launch date
2020-09-03
Launch site
AFETR
Launch vehicle
Mass (kg)
RCS (m²)

Purposes: comms

External: N2YO · Heavens-Above · Gunter

§ Orbital elements

Epoch: 2026-09-16T01:48:11.642400Z

Period
87.61 min
Inclination
53.0190°
Eccentricity
0.0008797
Mean motion
16.43705913 rev/d
Perigee alt
150.2 km
Apogee alt
161.7 km
Semi-major
6,534.1 km
B*
3.9040e-4
RAAN
132.8865°
Arg perigee
262.3899°
Mean anomaly
97.6149°
Rev number
33,452

§ Raw data

STARLINK-16561 46353U 20062AE  26259.07513475  .10983178  12446-4  39040-3 0  99942 46353  53.0190 132.8865 0008797 262.3899  97.6149 16.43705913334526

JSON: /api/v1/satellites/46353 · /tle

For live sub-satellite position, see the globe view (requires WebGL).

§ Visibility from observer

Set your observer location to see the next 7 days of passes ≥ 10°. The values pass through the URL so the page stays shareable.

No JS? Fill the form by hand. The geolocation button needs JavaScript.